This demonstration page uses our WeatherBlox Daily Observations layout. Learn more.

Left ArrowRight Arrow

38.88101, -77.10428

Hourly Observations for July 26, 2021

Temp ( °F °C ) Dew Point ( °F °C ) Humidity (%) Winds ( mph kmh ) Pressure ( in mb ) Visibility ( mi km ) Precip ( " mm )
12:52 am 00:52 Mostly Cloudy 80 26.7 71 21.7 74 74 SW 8 13 29.91 1013 10 16 N/A
1:52 am 01:52 Partly Cloudy 79 26.1 71 21.7 77 77 SW 7 11 29.91 1013 10 16 N/A
2:52 am 02:52 Partly Cloudy 78 25.6 71 21.7 79 79 SW 7 11 29.91 1013 10 16 N/A
3:52 am 03:52 Partly Cloudy 77 25 71 21.7 82 82 SW 7 11 29.90 1013 10 16 N/A
4:52 am 04:52 Partly Cloudy 76 24.4 71 21.7 85 85 SSW 5 7 29.91 1013 10 16 N/A
5:52 am 05:52 Mostly Cloudy 75 23.9 70 21.1 84 84 SSW 3 6 29.91 1013 10 16 N/A
6:52 am 06:52 Mostly Cloudy 76 24.4 70 21.1 82 82 SSW 5 7 29.93 1013 10 16 N/A
7:52 am 07:52 Mostly Cloudy 78 25.6 71 21.7 79 79 S 5 7 29.93 1014 10 16 N/A
8:52 am 08:52 Mostly Cloudy 80 26.7 71 21.7 74 74 N N/A 29.94 1014 10 16 N/A
9:52 am 09:52 Mostly Cloudy 84 28.9 70 21.1 63 63 NNW 9 15 29.94 1014 10 16 N/A
10:52 am 10:52 Cloudy 86 30 71 21.7 61 61 NNW 6 9 29.94 1014 10 16 N/A
11:52 am 11:52 Cloudy 88 31.1 70 21.1 55 55 NNE 5 7 29.93 1014 10 16 N/A
12:52 pm 12:52 Mostly Cloudy 91 32.8 69 20.6 49 49 VRB 6 9 29.93 1014 10 16 N/A
1:52 pm 13:52 Mostly Cloudy 93 33.9 67 19.4 42 42 ENE 5 7 29.92 1013 10 16 N/A
2:52 pm 14:52 Mostly Cloudy 94 34.4 62 16.7 35 35 undefined N/A 29.91 1013 10 16 N/A
3:52 pm 15:52 Mostly Cloudy 95 35 64 17.8 36 36 N N/A 29.89 1012 10 16 N/A
4:52 pm 16:52 Mostly Cloudy 97 36.1 64 17.8 34 34 VRB 3 6 29.90 1012 10 16 N/A
5:52 pm 17:52 Mostly Cloudy 89 31.7 70 21.1 53 53 ESE 13 20 29.89 1012 10 16 N/A
6:52 pm 18:52 Mostly Cloudy with Nearby Thunderstorms 87 30.6 69 20.6 55 55 SE 12 19 29.89 1012 10 16 N/A
7:24 pm 19:24 Mostly Cloudy with Thunderstorms 87 30.6 69 20.6 55 55 ENE 7 11 29.92 1013 10 16 N/A
7:48 pm 19:48 Cloudy with Strong Thunderstorms 77 25 72 22 83 83 NNE 16 26 29.92 1013 4 6 0.01 0.25
8:04 pm 20:04 Cloudy with Strong Thunderstorms 76 24.4 70 21.1 82 82 ENE 14 22 29.96 1014 3 5 0.13 3.30
8:14 pm 20:14 Cloudy with Strong Thunderstorms 74 23.3 70 21.1 88 88 SSW 16 26 29.95 1014 3 4 0.16 4.06
8:18 pm 20:18 Cloudy with Strong Thunderstorms 75 23.9 68 20 79 79 SE 14 22 29.94 1014 2 3 0.24 6.10
8:24 pm 20:24 Cloudy with Thunderstorms 76 24.4 67 19.4 74 74 S 16 26 29.94 1014 3 5 0.30 7.62
8:27 pm 20:27 Mostly Cloudy with Thunderstorms 75 23.9 68 20 79 79 SSE 16 26 29.94 1014 5 8 0.30 7.62
8:36 pm 20:36 Mostly Cloudy with Nearby Thunderstorms 75 23.9 66 18.9 74 74 ESE 7 11 29.94 1014 10 16 0.30 7.62
8:52 pm 20:52 Mostly Cloudy with Nearby Thunderstorms 76 24.4 68 20 77 77 S 6 9 29.94 1014 10 16 0.30 7.62
8:55 pm 20:55 Mostly Cloudy 75 23.9 68 20 79 79 SSW 7 11 29.95 1014 10 16 N/A
9:52 pm 21:52 Partly Cloudy 75 23.9 69 20.6 82 82 WSW 3 6 29.97 1015 10 16 N/A
10:52 pm 22:52 Mostly Cloudy 75 23.9 70 21.1 84 84 W 5 7 29.98 1015 10 16 N/A
11:52 pm 23:52 Mostly Clear 76 24.4 68 20 77 77 N N/A 29.97 1015 10 16 N/A

Powered by AerisWeather